Location: Mat�lon
(46.2791°N, 7.1028°E)
Time: 17:19:57
(UTC+00:00)

SPOT 5 - Pass Details

Date: 18 September 2020
Orbit: 623 x 815 km, 98.3° (Epoch: 29 October)

Event Time Altitude Azimuth Distance (km) Brightness Sun altitude
Exits shadow 20:40:12 34° 21° (NNE) 1,294 4.2 -30.1°
Drops below altitude 10° 20:43:29 10° 357° (N) 2,387 6.0 -30.5°
Sets 20:45:56 0° 352° (N) 3,337 7.0 -30.8°
